Year,Month,Day,Hour,Minute,Value (Times are PST for windgust in km/hr)
2021,01,14,00,00,17.70
2021,01,14,00,01,20.90
2021,01,14,00,02,17.70
2021,01,14,00,03,17.70
2021,01,14,00,04,17.70
2021,01,14,00,05,16.10
2021,01,14,00,06,17.70
2021,01,14,00,07,17.70
2021,01,14,00,08,16.10
2021,01,14,00,09,16.10
2021,01,14,00,10,17.70
2021,01,14,00,11,20.90
2021,01,14,00,12,19.30
2021,01,14,00,13,20.90
2021,01,14,00,14,22.50
2021,01,14,00,15,20.90
2021,01,14,00,16,20.90
2021,01,14,00,17,20.90
2021,01,14,00,18,19.30
2021,01,14,00,19,20.90
2021,01,14,00,20,22.50
2021,01,14,00,21,24.20
2021,01,14,00,22,22.50
2021,01,14,00,23,24.20
2021,01,14,00,24,24.20
2021,01,14,00,25,24.20
2021,01,14,00,26,27.40
2021,01,14,00,27,25.70
2021,01,14,00,28,25.70
2021,01,14,00,29,27.40
2021,01,14,00,30,25.70
2021,01,14,00,31,25.70
2021,01,14,00,32,27.40
2021,01,14,00,33,29.00
2021,01,14,00,34,27.40
2021,01,14,00,35,27.40
2021,01,14,00,36,27.40
2021,01,14,00,37,29.00
2021,01,14,00,38,29.00
2021,01,14,00,39,27.40
2021,01,14,00,40,29.00
2021,01,14,00,41,29.00
2021,01,14,00,42,29.00
2021,01,14,00,43,29.00
2021,01,14,00,44,29.00
2021,01,14,00,45,29.00
2021,01,14,00,46,29.00
2021,01,14,00,47,29.00
2021,01,14,00,48,29.00
2021,01,14,00,49,30.60
2021,01,14,00,50,29.00
2021,01,14,00,51,29.00
2021,01,14,00,52,35.40
2021,01,14,00,53,37.00
2021,01,14,00,54,30.60
2021,01,14,00,55,33.80
2021,01,14,00,56,30.60
2021,01,14,00,57,30.60
2021,01,14,00,58,35.40
2021,01,14,00,59,37.00
2021,01,14,01,00,37.00
2021,01,14,01,01,35.40
2021,01,14,01,02,38.60
2021,01,14,01,03,37.00
2021,01,14,01,04,35.40
2021,01,14,01,05,35.40
2021,01,14,01,06,35.40
2021,01,14,01,07,35.40
2021,01,14,01,08,37.00
2021,01,14,01,09,38.60
2021,01,14,01,10,38.60
2021,01,14,01,11,40.20
2021,01,14,01,12,38.60
2021,01,14,01,13,35.40
2021,01,14,01,14,33.80
2021,01,14,01,15,33.80
2021,01,14,01,16,33.80
2021,01,14,01,17,35.40
2021,01,14,01,18,33.80
2021,01,14,01,19,37.00
2021,01,14,01,20,35.40
2021,01,14,01,21,35.40
2021,01,14,01,22,35.40
2021,01,14,01,23,25.70
2021,01,14,01,24,27.40
2021,01,14,01,25,30.60
2021,01,14,01,26,30.60
2021,01,14,01,27,29.00
2021,01,14,01,28,25.70
2021,01,14,01,29,27.40
2021,01,14,01,30,29.00
2021,01,14,01,31,29.00
2021,01,14,01,32,30.60
2021,01,14,01,33,32.20
2021,01,14,01,34,27.40
2021,01,14,01,35,29.00
2021,01,14,01,36,29.00
2021,01,14,01,37,29.00
2021,01,14,01,38,29.00
2021,01,14,01,39,29.00
2021,01,14,01,40,27.40
2021,01,14,01,41,32.20
2021,01,14,01,42,30.60
2021,01,14,01,43,25.70
2021,01,14,01,44,29.00
2021,01,14,01,45,25.70
2021,01,14,01,46,25.70
2021,01,14,01,47,25.70
2021,01,14,01,48,25.70
2021,01,14,01,49,29.00
2021,01,14,01,50,25.70
2021,01,14,01,51,20.90
2021,01,14,01,52,20.90
2021,01,14,01,53,20.90
2021,01,14,01,54,24.20
2021,01,14,01,55,20.90
2021,01,14,01,56,24.20
2021,01,14,01,57,19.30
2021,01,14,01,58,19.30
2021,01,14,01,59,20.90
2021,01,14,02,00,19.30
2021,01,14,02,01,19.30
2021,01,14,02,02,17.70
2021,01,14,02,03,20.90
2021,01,14,02,04,19.30
2021,01,14,02,05,19.30
2021,01,14,02,06,17.70
2021,01,14,02,07,17.70
2021,01,14,02,08,20.90
2021,01,14,02,09,19.30
2021,01,14,02,10,20.90
2021,01,14,02,11,19.30
2021,01,14,02,12,22.50
2021,01,14,02,13,20.90
2021,01,14,02,14,20.90
2021,01,14,02,15,22.50
2021,01,14,02,16,22.50
2021,01,14,02,17,22.50
2021,01,14,02,18,22.50
2021,01,14,02,19,20.90
2021,01,14,02,20,22.50
2021,01,14,02,21,24.20
2021,01,14,02,22,24.20
2021,01,14,02,23,22.50
2021,01,14,02,24,22.50
2021,01,14,02,25,22.50
2021,01,14,02,26,22.50
2021,01,14,02,27,22.50
2021,01,14,02,28,22.50
2021,01,14,02,29,20.90
2021,01,14,02,30,20.90
2021,01,14,02,31,19.30
2021,01,14,02,32,20.90
2021,01,14,02,33,22.50
2021,01,14,02,34,20.90
2021,01,14,02,35,20.90
2021,01,14,02,36,20.90
2021,01,14,02,37,20.90
2021,01,14,02,38,22.50
2021,01,14,02,39,22.50
2021,01,14,02,40,24.20
2021,01,14,02,41,24.20
2021,01,14,02,42,24.20
2021,01,14,02,43,24.20
2021,01,14,02,44,22.50
2021,01,14,02,45,24.20
2021,01,14,02,46,22.50
2021,01,14,02,47,22.50
2021,01,14,02,48,22.50
2021,01,14,02,49,20.90
2021,01,14,02,50,22.50
2021,01,14,02,51,22.50
2021,01,14,02,52,24.20
2021,01,14,02,53,22.50
2021,01,14,02,54,24.20
2021,01,14,02,55,25.70
2021,01,14,02,56,24.20
2021,01,14,02,57,22.50
2021,01,14,02,58,22.50
2021,01,14,02,59,22.50
2021,01,14,03,00,20.90
2021,01,14,03,01,22.50
2021,01,14,03,02,20.90
2021,01,14,03,03,24.20
2021,01,14,03,04,22.50
2021,01,14,03,05,20.90
2021,01,14,03,06,22.50
2021,01,14,03,07,20.90
2021,01,14,03,08,24.20
2021,01,14,03,09,22.50
2021,01,14,03,10,24.20
2021,01,14,03,11,24.20
2021,01,14,03,12,24.20
2021,01,14,03,13,24.20
2021,01,14,03,14,24.20
2021,01,14,03,15,24.20
2021,01,14,03,16,24.20
2021,01,14,03,17,25.70
2021,01,14,03,18,24.20
2021,01,14,03,19,25.70
2021,01,14,03,20,25.70
2021,01,14,03,21,25.70
2021,01,14,03,22,25.70
2021,01,14,03,23,24.20
2021,01,14,03,24,25.70
2021,01,14,03,25,25.70
2021,01,14,03,26,24.20
2021,01,14,03,27,24.20
2021,01,14,03,28,22.50
2021,01,14,03,29,24.20
2021,01,14,03,30,22.50
2021,01,14,03,31,22.50
2021,01,14,03,32,20.90
2021,01,14,03,33,20.90
2021,01,14,03,34,20.90
2021,01,14,03,35,20.90
2021,01,14,03,36,24.20
2021,01,14,03,37,24.20
2021,01,14,03,38,22.50
2021,01,14,03,39,24.20
2021,01,14,03,40,24.20
2021,01,14,03,41,22.50
2021,01,14,03,42,24.20
2021,01,14,03,43,24.20
2021,01,14,03,44,25.70
2021,01,14,03,45,22.50
2021,01,14,03,46,22.50
2021,01,14,03,47,24.20
2021,01,14,03,48,22.50
2021,01,14,03,49,22.50
2021,01,14,03,50,22.50
2021,01,14,03,51,22.50
2021,01,14,03,52,22.50
2021,01,14,03,53,22.50
2021,01,14,03,54,22.50
2021,01,14,03,55,20.90
2021,01,14,03,56,22.50
2021,01,14,03,57,22.50
2021,01,14,03,58,25.70
2021,01,14,03,59,27.40
2021,01,14,04,00,25.70
2021,01,14,04,01,27.40
2021,01,14,04,02,25.70
2021,01,14,04,03,25.70
2021,01,14,04,04,27.40
2021,01,14,04,05,27.40
2021,01,14,04,06,25.70
2021,01,14,04,07,24.20
2021,01,14,04,08,24.20
2021,01,14,04,09,24.20
2021,01,14,04,10,24.20
2021,01,14,04,11,24.20
2021,01,14,04,12,24.20
2021,01,14,04,13,20.90
2021,01,14,04,14,22.50
2021,01,14,04,15,22.50
2021,01,14,04,16,24.20
2021,01,14,04,17,24.20
2021,01,14,04,18,25.70
2021,01,14,04,19,24.20
2021,01,14,04,20,25.70
2021,01,14,04,21,22.50
2021,01,14,04,22,24.20
2021,01,14,04,23,25.70
2021,01,14,04,24,25.70
2021,01,14,04,25,27.40
2021,01,14,04,26,25.70
2021,01,14,04,27,27.40
2021,01,14,04,28,29.00
2021,01,14,04,29,29.00
2021,01,14,04,30,30.60
2021,01,14,04,31,30.60
2021,01,14,04,32,30.60
2021,01,14,04,33,27.40
2021,01,14,04,34,27.40
2021,01,14,04,35,27.40
2021,01,14,04,36,27.40
2021,01,14,04,37,27.40
2021,01,14,04,38,27.40
2021,01,14,04,39,25.70
2021,01,14,04,40,24.20
2021,01,14,04,41,24.20
2021,01,14,04,42,24.20
2021,01,14,04,43,20.90
2021,01,14,04,44,25.70
2021,01,14,04,45,25.70
2021,01,14,04,46,27.40
2021,01,14,04,47,25.70
2021,01,14,04,48,25.70
2021,01,14,04,49,27.40
2021,01,14,04,50,25.70
2021,01,14,04,51,24.20
2021,01,14,04,52,25.70
2021,01,14,04,53,27.40
2021,01,14,04,54,25.70
2021,01,14,04,55,24.20
2021,01,14,04,56,25.70
2021,01,14,04,57,25.70
2021,01,14,04,58,27.40
2021,01,14,04,59,27.40
2021,01,14,05,00,27.40
2021,01,14,05,01,27.40
2021,01,14,05,02,27.40
2021,01,14,05,03,24.20
2021,01,14,05,04,25.70
2021,01,14,05,05,27.40
2021,01,14,05,06,27.40
2021,01,14,05,07,27.40
2021,01,14,05,08,27.40
2021,01,14,05,09,24.20
2021,01,14,05,10,25.70
2021,01,14,05,11,24.20
2021,01,14,05,12,27.40
2021,01,14,05,13,24.20
2021,01,14,05,14,24.20
2021,01,14,05,15,24.20
2021,01,14,05,16,25.70
2021,01,14,05,17,27.40
2021,01,14,05,18,29.00
2021,01,14,05,19,29.00
2021,01,14,05,20,27.40
2021,01,14,05,21,25.70
2021,01,14,05,22,25.70
2021,01,14,05,23,24.20
2021,01,14,05,24,24.20
2021,01,14,05,25,22.50
2021,01,14,05,26,24.20
2021,01,14,05,27,22.50
2021,01,14,05,28,24.20
2021,01,14,05,29,24.20
2021,01,14,05,30,25.70
2021,01,14,05,31,25.70
2021,01,14,05,32,22.50
2021,01,14,05,33,22.50
2021,01,14,05,34,24.20
2021,01,14,05,35,25.70
2021,01,14,05,36,25.70
2021,01,14,05,37,24.20
2021,01,14,05,38,20.90
2021,01,14,05,39,20.90
2021,01,14,05,40,20.90
2021,01,14,05,41,20.90
2021,01,14,05,42,22.50
2021,01,14,05,43,25.70
2021,01,14,05,44,20.90
2021,01,14,05,45,17.70
2021,01,14,05,46,19.30
2021,01,14,05,47,20.90
2021,01,14,05,48,20.90
2021,01,14,05,49,22.50
2021,01,14,05,50,22.50
2021,01,14,05,51,20.90
2021,01,14,05,52,22.50
2021,01,14,05,53,20.90
2021,01,14,05,54,19.30
2021,01,14,05,55,19.30
2021,01,14,05,56,19.30
2021,01,14,05,57,19.30
2021,01,14,05,58,22.50
2021,01,14,05,59,20.90
2021,01,14,06,00,22.50
2021,01,14,06,01,20.90
2021,01,14,06,02,19.30
2021,01,14,06,03,19.30
2021,01,14,06,04,20.90
2021,01,14,06,05,19.30
2021,01,14,06,06,20.90
2021,01,14,06,07,19.30
2021,01,14,06,08,19.30
2021,01,14,06,09,19.30
2021,01,14,06,10,20.90
2021,01,14,06,11,17.70
2021,01,14,06,12,20.90
2021,01,14,06,13,22.50
2021,01,14,06,14,19.30
2021,01,14,06,15,19.30
2021,01,14,06,16,22.50
2021,01,14,06,17,19.30
2021,01,14,06,18,17.70
2021,01,14,06,19,17.70
2021,01,14,06,20,19.30
2021,01,14,06,21,20.90
2021,01,14,06,22,20.90
2021,01,14,06,23,22.50
2021,01,14,06,24,20.90
2021,01,14,06,25,19.30
2021,01,14,06,26,19.30
2021,01,14,06,27,19.30
2021,01,14,06,28,17.70
2021,01,14,06,29,17.70
2021,01,14,06,30,16.10
2021,01,14,06,31,16.10
2021,01,14,06,32,16.10
2021,01,14,06,33,16.10
2021,01,14,06,34,16.10
2021,01,14,06,35,19.30
2021,01,14,06,36,20.90
2021,01,14,06,37,22.50
2021,01,14,06,38,22.50
2021,01,14,06,39,19.30
2021,01,14,06,40,19.30
2021,01,14,06,41,17.70
2021,01,14,06,42,17.70
2021,01,14,06,43,19.30
2021,01,14,06,44,17.70
2021,01,14,06,45,16.10
2021,01,14,06,46,16.10
2021,01,14,06,47,17.70
2021,01,14,06,48,17.70
2021,01,14,06,49,17.70
2021,01,14,06,50,16.10
2021,01,14,06,51,17.70
2021,01,14,06,52,16.10
2021,01,14,06,53,17.70
2021,01,14,06,54,14.50
2021,01,14,06,55,14.50
2021,01,14,06,56,14.50
2021,01,14,06,57,14.50
2021,01,14,06,58,14.50
2021,01,14,06,59,16.10
2021,01,14,07,00,16.10
2021,01,14,07,01,14.50
2021,01,14,07,02,14.50
2021,01,14,07,03,16.10
2021,01,14,07,04,16.10
2021,01,14,07,05,14.50
2021,01,14,07,06,17.70
2021,01,14,07,07,12.90
2021,01,14,07,08,14.50
2021,01,14,07,09,16.10
2021,01,14,07,10,14.50
2021,01,14,07,11,14.50
2021,01,14,07,12,12.90
2021,01,14,07,13,12.90
2021,01,14,07,14,11.30
2021,01,14,07,15,12.90
2021,01,14,07,16,12.90
2021,01,14,07,17,14.50
2021,01,14,07,18,12.90
2021,01,14,07,19,14.50
2021,01,14,07,20,14.50
2021,01,14,07,21,14.50
2021,01,14,07,22,12.90
2021,01,14,07,23,12.90
2021,01,14,07,24,12.90
2021,01,14,07,25,11.30
2021,01,14,07,26,14.50
2021,01,14,07,27,14.50
2021,01,14,07,28,16.10
2021,01,14,07,29,16.10
2021,01,14,07,30,16.10
2021,01,14,07,31,12.90
2021,01,14,07,32,12.90
2021,01,14,07,33,12.90
2021,01,14,07,34,12.90
2021,01,14,07,35,12.90
2021,01,14,07,36,12.90
2021,01,14,07,37,12.90
2021,01,14,07,38,12.90
2021,01,14,07,39,12.90
2021,01,14,07,40,11.30
2021,01,14,07,41,9.60
2021,01,14,07,42,8.10
2021,01,14,07,43,9.60
2021,01,14,07,44,12.90
2021,01,14,07,45,12.90
2021,01,14,07,46,12.90
2021,01,14,07,47,14.50
2021,01,14,07,48,11.30
2021,01,14,07,49,11.30
2021,01,14,07,50,9.60
2021,01,14,07,51,11.30
2021,01,14,07,52,12.90
2021,01,14,07,53,12.90
2021,01,14,07,54,11.30
2021,01,14,07,55,11.30
2021,01,14,07,56,9.60
2021,01,14,07,57,9.60
2021,01,14,07,58,9.60
2021,01,14,07,59,11.30
2021,01,14,08,00,12.90
2021,01,14,08,01,12.90
2021,01,14,08,02,12.90
2021,01,14,08,03,14.50
2021,01,14,08,04,14.50
2021,01,14,08,05,16.10
2021,01,14,08,06,16.10
2021,01,14,08,07,19.30
2021,01,14,08,08,16.10
2021,01,14,08,09,16.10
2021,01,14,08,10,14.50
2021,01,14,08,11,16.10
2021,01,14,08,12,19.30
2021,01,14,08,13,19.30
2021,01,14,08,14,12.90
2021,01,14,08,15,11.30
2021,01,14,08,16,11.30
2021,01,14,08,17,16.10
2021,01,14,08,18,16.10
2021,01,14,08,19,16.10
2021,01,14,08,20,12.90
2021,01,14,08,21,14.50
2021,01,14,08,22,12.90
2021,01,14,08,23,12.90
2021,01,14,08,24,12.90
2021,01,14,08,25,14.50
2021,01,14,08,26,17.70
2021,01,14,08,27,16.10
2021,01,14,08,28,16.10
2021,01,14,08,29,17.70
2021,01,14,08,30,14.50
2021,01,14,08,31,14.50
2021,01,14,08,32,14.50
2021,01,14,08,33,17.70
2021,01,14,08,34,17.70
2021,01,14,08,35,17.70
2021,01,14,08,36,19.30
2021,01,14,08,37,17.70
2021,01,14,08,38,16.10
2021,01,14,08,39,17.70
2021,01,14,08,40,17.70
2021,01,14,08,41,17.70
2021,01,14,08,42,16.10
2021,01,14,08,43,19.30
2021,01,14,08,44,17.70
2021,01,14,08,45,16.10
2021,01,14,08,46,16.10
2021,01,14,08,47,17.70
2021,01,14,08,48,17.70
2021,01,14,08,49,17.70
2021,01,14,08,50,17.70
2021,01,14,08,51,16.10
2021,01,14,08,52,16.10
2021,01,14,08,53,16.10
2021,01,14,08,54,17.70
2021,01,14,08,55,17.70
2021,01,14,08,56,17.70
2021,01,14,08,57,17.70
2021,01,14,08,58,16.10
2021,01,14,08,59,19.30
2021,01,14,09,00,19.30
2021,01,14,09,01,20.90
2021,01,14,09,02,24.20
2021,01,14,09,03,22.50
2021,01,14,09,04,19.30
2021,01,14,09,05,19.30
2021,01,14,09,06,17.70
2021,01,14,09,07,16.10
2021,01,14,09,08,14.50
2021,01,14,09,09,20.90
2021,01,14,09,10,22.50
2021,01,14,09,11,20.90
2021,01,14,09,12,19.30
2021,01,14,09,13,24.20
2021,01,14,09,14,22.50
2021,01,14,09,15,19.30
2021,01,14,09,16,17.70
2021,01,14,09,17,20.90
2021,01,14,09,18,19.30
2021,01,14,09,19,22.50
2021,01,14,09,20,22.50
2021,01,14,09,21,20.90
2021,01,14,09,22,20.90
2021,01,14,09,23,20.90
2021,01,14,09,24,19.30
2021,01,14,09,25,17.70
2021,01,14,09,26,20.90
2021,01,14,09,27,22.50
2021,01,14,09,28,20.90
2021,01,14,09,29,19.30
2021,01,14,09,30,20.90
2021,01,14,09,31,22.50
2021,01,14,09,32,19.30
2021,01,14,09,33,22.50
2021,01,14,09,34,22.50
2021,01,14,09,35,20.90
2021,01,14,09,36,19.30
2021,01,14,09,37,17.70
2021,01,14,09,38,20.90
2021,01,14,09,39,20.90
2021,01,14,09,40,17.70
2021,01,14,09,41,20.90
2021,01,14,09,42,20.90
2021,01,14,09,43,20.90
2021,01,14,09,44,22.50
2021,01,14,09,45,19.30
2021,01,14,09,46,17.70
2021,01,14,09,47,19.30
2021,01,14,09,48,19.30
2021,01,14,09,49,20.90
2021,01,14,09,50,22.50
2021,01,14,09,51,24.20
2021,01,14,09,52,24.20
2021,01,14,09,53,22.50
2021,01,14,09,54,22.50
2021,01,14,09,55,25.70
2021,01,14,09,56,25.70
2021,01,14,09,57,24.20
2021,01,14,09,58,25.70
2021,01,14,09,59,25.70
2021,01,14,10,00,25.70
2021,01,14,10,01,27.40
2021,01,14,10,02,27.40
2021,01,14,10,03,27.40
2021,01,14,10,04,30.60
2021,01,14,10,05,25.70
2021,01,14,10,06,27.40
2021,01,14,10,07,27.40
2021,01,14,10,08,29.00
2021,01,14,10,09,29.00
2021,01,14,10,10,29.00
2021,01,14,10,11,30.60
2021,01,14,10,12,27.40
2021,01,14,10,13,25.70
2021,01,14,10,14,24.20
2021,01,14,10,15,24.20
2021,01,14,10,16,27.40
2021,01,14,10,17,25.70
2021,01,14,10,18,22.50
2021,01,14,10,19,24.20
2021,01,14,10,20,22.50
2021,01,14,10,21,22.50
2021,01,14,10,22,20.90
2021,01,14,10,23,20.90
2021,01,14,10,24,24.20
2021,01,14,10,25,19.30
2021,01,14,10,26,22.50
2021,01,14,10,27,25.70
2021,01,14,10,28,24.20
2021,01,14,10,29,19.30
2021,01,14,10,30,24.20
2021,01,14,10,31,22.50
2021,01,14,10,32,24.20
2021,01,14,10,33,22.50
2021,01,14,10,34,24.20
2021,01,14,10,35,20.90
2021,01,14,10,36,17.70
2021,01,14,10,37,14.50
2021,01,14,10,38,17.70
2021,01,14,10,39,16.10
2021,01,14,10,40,16.10
2021,01,14,10,41,19.30
2021,01,14,10,42,20.90
2021,01,14,10,43,22.50
2021,01,14,10,44,22.50
2021,01,14,10,45,20.90
2021,01,14,10,46,22.50
2021,01,14,10,47,27.40
2021,01,14,10,48,24.20
2021,01,14,10,49,22.50
2021,01,14,10,50,25.70
2021,01,14,10,51,24.20
2021,01,14,10,52,22.50
2021,01,14,10,53,27.40
2021,01,14,10,54,25.70
2021,01,14,10,55,24.20
2021,01,14,10,56,24.20
2021,01,14,10,57,25.70
2021,01,14,10,58,25.70
2021,01,14,10,59,24.20
2021,01,14,11,00,25.70
2021,01,14,11,01,27.40
2021,01,14,11,02,25.70
2021,01,14,11,03,22.50
2021,01,14,11,04,19.30
2021,01,14,11,05,24.20
2021,01,14,11,06,24.20
2021,01,14,11,07,22.50
2021,01,14,11,08,22.50
2021,01,14,11,09,25.70
2021,01,14,11,10,25.70
2021,01,14,11,11,20.90
2021,01,14,11,12,20.90
2021,01,14,11,13,24.20
2021,01,14,11,14,25.70
2021,01,14,11,15,22.50
2021,01,14,11,16,20.90
2021,01,14,11,17,20.90
2021,01,14,11,18,22.50
2021,01,14,11,19,25.70
2021,01,14,11,20,25.70
2021,01,14,11,21,24.20
2021,01,14,11,22,19.30
2021,01,14,11,23,25.70
2021,01,14,11,24,24.20
2021,01,14,11,25,22.50
2021,01,14,11,26,25.70
2021,01,14,11,27,27.40
2021,01,14,11,28,27.40
2021,01,14,11,29,30.60
2021,01,14,11,30,29.00
2021,01,14,11,31,29.00
2021,01,14,11,32,27.40
2021,01,14,11,33,27.40
2021,01,14,11,34,24.20
2021,01,14,11,35,27.40
2021,01,14,11,36,30.60
2021,01,14,11,37,29.00
2021,01,14,11,38,30.60
2021,01,14,11,39,27.40
2021,01,14,11,40,25.70
2021,01,14,11,41,25.70
2021,01,14,11,42,25.70
2021,01,14,11,43,22.50
2021,01,14,11,44,22.50
2021,01,14,11,45,22.50
2021,01,14,11,46,20.90
2021,01,14,11,47,20.90
2021,01,14,11,48,22.50
2021,01,14,11,49,20.90
2021,01,14,11,50,19.30
2021,01,14,11,51,20.90
2021,01,14,11,52,24.20
2021,01,14,11,53,24.20
2021,01,14,11,54,24.20
2021,01,14,11,55,24.20
2021,01,14,11,56,27.40
2021,01,14,11,57,29.00
2021,01,14,11,58,29.00
2021,01,14,11,59,29.00
2021,01,14,12,00,30.60
2021,01,14,12,01,30.60
2021,01,14,12,02,30.60
2021,01,14,12,03,29.00
2021,01,14,12,04,27.40
2021,01,14,12,05,29.00
2021,01,14,12,06,33.80
2021,01,14,12,07,33.80
2021,01,14,12,08,30.60
2021,01,14,12,09,30.60
2021,01,14,12,10,29.00
2021,01,14,12,11,29.00
2021,01,14,12,12,30.60
2021,01,14,12,13,30.60
2021,01,14,12,14,32.20
2021,01,14,12,15,30.60
2021,01,14,12,16,32.20
2021,01,14,12,17,32.20
2021,01,14,12,18,32.20
2021,01,14,12,19,32.20
2021,01,14,12,20,32.20
2021,01,14,12,21,27.40
2021,01,14,12,22,30.60
2021,01,14,12,23,29.00
2021,01,14,12,24,30.60
2021,01,14,12,25,32.20
2021,01,14,12,26,29.00
2021,01,14,12,27,29.00
2021,01,14,12,28,30.60
2021,01,14,12,29,30.60
2021,01,14,12,30,29.00
2021,01,14,12,31,32.20
2021,01,14,12,32,33.80
2021,01,14,12,33,32.20
2021,01,14,12,34,30.60
2021,01,14,12,35,29.00
2021,01,14,12,36,30.60
2021,01,14,12,37,30.60
2021,01,14,12,38,30.60
2021,01,14,12,39,27.40
2021,01,14,12,40,30.60
2021,01,14,12,41,30.60
2021,01,14,12,42,30.60
2021,01,14,12,43,32.20
2021,01,14,12,44,30.60
2021,01,14,12,45,27.40
2021,01,14,12,46,29.00
2021,01,14,12,47,27.40
2021,01,14,12,48,27.40
2021,01,14,12,49,29.00
2021,01,14,12,50,27.40
2021,01,14,12,51,27.40
2021,01,14,12,52,29.00
2021,01,14,12,53,27.40
2021,01,14,12,54,27.40
2021,01,14,12,55,25.70
2021,01,14,12,56,29.00
2021,01,14,12,57,27.40
2021,01,14,12,58,27.40
2021,01,14,12,59,27.40
2021,01,14,13,00,27.40
2021,01,14,13,01,27.40
2021,01,14,13,02,25.70
2021,01,14,13,03,25.70
2021,01,14,13,04,25.70
2021,01,14,13,05,25.70
2021,01,14,13,06,25.70
2021,01,14,13,07,25.70
2021,01,14,13,08,25.70
2021,01,14,13,09,25.70
2021,01,14,13,10,25.70
2021,01,14,13,11,22.50
2021,01,14,13,12,24.20
2021,01,14,13,13,20.90
2021,01,14,13,14,24.20
2021,01,14,13,15,24.20
2021,01,14,13,16,24.20
2021,01,14,13,17,25.70
2021,01,14,13,18,24.20
2021,01,14,13,19,25.70
2021,01,14,13,20,22.50
2021,01,14,13,21,22.50
2021,01,14,13,22,24.20
2021,01,14,13,23,24.20
2021,01,14,13,24,25.70
2021,01,14,13,25,25.70
2021,01,14,13,26,24.20
2021,01,14,13,27,24.20
2021,01,14,13,28,20.90
2021,01,14,13,29,22.50
2021,01,14,13,30,20.90
2021,01,14,13,31,20.90
2021,01,14,13,32,22.50
2021,01,14,13,33,20.90
2021,01,14,13,34,19.30
2021,01,14,13,35,17.70
2021,01,14,13,36,19.30
2021,01,14,13,37,19.30
2021,01,14,13,38,19.30
2021,01,14,13,39,19.30
2021,01,14,13,40,20.90
2021,01,14,13,41,20.90
2021,01,14,13,42,19.30
2021,01,14,13,43,17.70
2021,01,14,13,44,19.30
2021,01,14,13,45,19.30
2021,01,14,13,46,19.30
2021,01,14,13,47,20.90
2021,01,14,13,48,19.30
2021,01,14,13,49,19.30
2021,01,14,13,50,19.30
2021,01,14,13,51,19.30
2021,01,14,13,52,19.30
2021,01,14,13,53,19.30
2021,01,14,13,54,19.30
2021,01,14,13,55,19.30
2021,01,14,13,56,19.30
2021,01,14,13,57,17.70
2021,01,14,13,58,17.70
2021,01,14,13,59,17.70
2021,01,14,14,00,17.70
2021,01,14,14,01,19.30
2021,01,14,14,02,17.70
2021,01,14,14,03,19.30
2021,01,14,14,04,17.70
2021,01,14,14,05,19.30
2021,01,14,14,06,19.30
2021,01,14,14,07,20.90
2021,01,14,14,08,19.30
2021,01,14,14,09,19.30
2021,01,14,14,10,17.70
2021,01,14,14,11,19.30
2021,01,14,14,12,19.30
2021,01,14,14,13,20.90
2021,01,14,14,14,20.90
2021,01,14,14,15,20.90
2021,01,14,14,16,19.30
2021,01,14,14,17,19.30
2021,01,14,14,18,20.90
2021,01,14,14,19,20.90
2021,01,14,14,20,20.90
2021,01,14,14,21,22.50
2021,01,14,14,22,22.50
2021,01,14,14,23,24.20
2021,01,14,14,24,22.50
2021,01,14,14,25,29.00
2021,01,14,14,26,25.70
2021,01,14,14,27,25.70
2021,01,14,14,28,25.70
2021,01,14,14,29,24.20
2021,01,14,14,30,22.50
2021,01,14,14,31,24.20
2021,01,14,14,32,24.20
2021,01,14,14,33,24.20
2021,01,14,14,34,24.20
2021,01,14,14,35,24.20
2021,01,14,14,36,24.20
2021,01,14,14,37,24.20
2021,01,14,14,38,25.70
2021,01,14,14,39,25.70
2021,01,14,14,40,27.40
2021,01,14,14,41,27.40
2021,01,14,14,42,25.70
2021,01,14,14,43,25.70
2021,01,14,14,44,24.20
2021,01,14,14,45,27.40
2021,01,14,14,46,27.40
2021,01,14,14,47,25.70
2021,01,14,14,48,25.70
2021,01,14,14,49,25.70
2021,01,14,14,50,24.20
2021,01,14,14,51,24.20
2021,01,14,14,52,24.20
2021,01,14,14,53,24.20
2021,01,14,14,54,24.20
2021,01,14,14,55,25.70
2021,01,14,14,56,25.70
2021,01,14,14,57,24.20
2021,01,14,14,58,24.20
2021,01,14,14,59,24.20
2021,01,14,15,00,20.90
2021,01,14,15,01,19.30
2021,01,14,15,02,17.70
2021,01,14,15,03,17.70
2021,01,14,15,04,17.70
2021,01,14,15,05,17.70
2021,01,14,15,06,17.70
2021,01,14,15,07,17.70
2021,01,14,15,08,16.10
2021,01,14,15,09,17.70
2021,01,14,15,10,17.70
2021,01,14,15,11,19.30
2021,01,14,15,12,19.30
2021,01,14,15,13,19.30
2021,01,14,15,14,19.30
2021,01,14,15,15,19.30
2021,01,14,15,16,20.90
2021,01,14,15,17,20.90
2021,01,14,15,18,22.50
2021,01,14,15,19,22.50
2021,01,14,15,20,22.50
2021,01,14,15,21,22.50
2021,01,14,15,22,22.50
2021,01,14,15,23,22.50
2021,01,14,15,24,22.50
2021,01,14,15,25,22.50
2021,01,14,15,26,22.50
2021,01,14,15,27,24.20
2021,01,14,15,28,24.20
2021,01,14,15,29,22.50
2021,01,14,15,30,22.50
2021,01,14,15,31,20.90
2021,01,14,15,32,20.90
2021,01,14,15,33,22.50
2021,01,14,15,34,22.50
2021,01,14,15,35,24.20
2021,01,14,15,36,20.90
2021,01,14,15,37,24.20
2021,01,14,15,38,24.20
2021,01,14,15,39,24.20
2021,01,14,15,40,24.20
2021,01,14,15,41,25.70
2021,01,14,15,42,27.40
2021,01,14,15,43,27.40
2021,01,14,15,44,29.00
2021,01,14,15,45,27.40
2021,01,14,15,46,25.70
2021,01,14,15,47,27.40
2021,01,14,15,48,25.70
2021,01,14,15,49,25.70
2021,01,14,15,50,29.00
2021,01,14,15,51,29.00
2021,01,14,15,52,27.40
2021,01,14,15,53,30.60
2021,01,14,15,54,29.00
2021,01,14,15,55,29.00
2021,01,14,15,56,27.40
2021,01,14,15,57,27.40
2021,01,14,15,58,25.70
2021,01,14,15,59,25.70
2021,01,14,16,00,25.70
2021,01,14,16,01,25.70
2021,01,14,16,02,25.70
2021,01,14,16,03,25.70
2021,01,14,16,04,27.40
2021,01,14,16,05,27.40
2021,01,14,16,06,27.40
2021,01,14,16,07,29.00
2021,01,14,16,08,27.40
2021,01,14,16,09,27.40
2021,01,14,16,10,29.00
2021,01,14,16,11,27.40
2021,01,14,16,12,27.40
2021,01,14,16,13,27.40
2021,01,14,16,14,27.40
2021,01,14,16,15,30.60
2021,01,14,16,16,29.00
2021,01,14,16,17,29.00
2021,01,14,16,18,29.00
2021,01,14,16,19,27.40
2021,01,14,16,20,25.70
2021,01,14,16,21,25.70
2021,01,14,16,22,25.70
2021,01,14,16,23,25.70
2021,01,14,16,24,25.70
2021,01,14,16,25,24.20
2021,01,14,16,26,24.20
2021,01,14,16,27,24.20
2021,01,14,16,28,24.20
2021,01,14,16,29,24.20
2021,01,14,16,30,25.70
2021,01,14,16,31,25.70
2021,01,14,16,32,25.70
2021,01,14,16,33,24.20
2021,01,14,16,34,24.20
2021,01,14,16,35,24.20
2021,01,14,16,36,24.20
2021,01,14,16,37,25.70
2021,01,14,16,38,24.20
2021,01,14,16,39,24.20
2021,01,14,16,40,20.90
2021,01,14,16,41,20.90
2021,01,14,16,42,22.50
2021,01,14,16,43,19.30
2021,01,14,16,44,17.70
2021,01,14,16,45,17.70
2021,01,14,16,46,19.30
2021,01,14,16,47,19.30
2021,01,14,16,48,19.30
2021,01,14,16,49,17.70
2021,01,14,16,50,16.10
2021,01,14,16,51,17.70
2021,01,14,16,52,19.30
2021,01,14,16,53,19.30
2021,01,14,16,54,19.30
2021,01,14,16,55,19.30
2021,01,14,16,56,22.50
2021,01,14,16,57,22.50
2021,01,14,16,58,24.20
2021,01,14,16,59,24.20
2021,01,14,17,00,24.20
2021,01,14,17,01,24.20
2021,01,14,17,02,25.70
2021,01,14,17,03,25.70
2021,01,14,17,04,24.20
2021,01,14,17,05,24.20
2021,01,14,17,06,22.50
2021,01,14,17,07,22.50
2021,01,14,17,08,24.20
2021,01,14,17,09,22.50
2021,01,14,17,10,22.50
2021,01,14,17,11,22.50
2021,01,14,17,12,20.90
2021,01,14,17,13,19.30
2021,01,14,17,14,20.90
2021,01,14,17,15,19.30
2021,01,14,17,16,20.90
2021,01,14,17,17,20.90
2021,01,14,17,18,20.90
2021,01,14,17,19,19.30